Showing default

JILIN-01 GAOFEN 3C, 46455

Orbit data source: Space-Track

JILIN-01 GAOFEN 3C, 46455 is a payload satellite owned by Changguang WJ (CN) in SSO that was launched on Tue, 15 Sep 2020 UTC via a CHANG ZHENG 11 launch vehicle from the Yellow Sea Launch Area, China (YSLA). Payload-class satellites include a variety of spacecraft equipped with specific instruments for various scientific and technological missions. These include communications satellites like Starlink; space stations such as the ISS; scientific satellites like the Hubble; Earth observation satellites from companies like Planet Labs, Umbra, and HawkEye 360; GPS; miniature CubeSats for education and research; and military/defense satellites.

Not visible in the next 10 days
Identifier
46455, 2020-065B
Orbit
SSO
Last TLE update
8 hours ago
Origin
Flag of CNCGSTL (CN / PRC)
Manufacturer
Changguang WJ
Mission
Operational Commercial Imaging
Bus & Motor
JL-1, Unknown motor
Mass
42 kg wet, 42 kg dry
Launch date (UTC)
2020-09-15 (5 years ago)
Launch vehicle
CHANG ZHENG 11
Launch site
Yellow Sea Launch Area, China (YSLA)
Object type
Payload
Rocket body
Debris
Shape & HBR
Box + 2 Pan, 1.5 m
Radar Cross Section
2.000 m², Medium (>0.1 m² and < 1m²)

Expand to show TLE details & history

TLE from 8 hours ago
0 JILIN-01 GAOFEN 3C
1 46455U 20065B   25127.50918922  .00033351  00000-0  66897-3 0  9994
2 46455  97.2834 175.2436 0004292 152.0586 208.0895 15.46621626257208
Epoch: 2025-05-07T12:13Z
Definitive object data (Epoch: 2025-05-07T12:13:13.948Z)
Latitude
-0.00004°
Longitude
126.34247°
Altitude
432.325 km
Speed
7.651 km/s
True Right ascension
11h 40m 58s
True Declination
0° 00' 00"
Sunlit
Object was in full shadow at TLE epoch
Visualization TLE readout
Latitude
47.4879°
Longitude
-45.33908°
Altitude
431.245 km
Speed
7.659 km/s
Apparent Right ascension
20h 14m 32s
Apparent Declination
10° 10' 57"
Sunlit
Object is in daylight
Visualization observer readout
Local Sidereal Time
04:36:29
Azimuth
302.073° NW
Elevation
-18.953°
Doppler factor
1
Orbital elements
Apogee altitude
426.462 km
Perigee altitude
420.623 km
Semi-major axis
6,801.68 km
Eccentricity
0.0004292
Inclination
97.2834°
RAAN
175.2436°
Arg. of periapsis
152.0586°
True anomaly
208.06635°
Mean anomaly
208.0895°
Eccentric anomaly
208.07793°
Mean motion
3.86918 °/min
BSTAR
0.00066897
Orbital period
93.04 mins
Loading maneuver chart data...
Loading SW <> Apogee altitude chart data...
Loading historical data...
Loading historical data...
Loading historical data...
Loading historical data...
Loading historical data...
Loading historical data...
Loading historical data...

JILIN-01 GAOFEN 3C Visibility forecast

Observer location: undefined°, undefined°

JILIN-01 GAOFEN 3C is not visible in the next 10 days
Span
Click to sort rows by Start time (UTC) header in descending order
Start Az.
Max El. time (UTC)
Max El. Az.
Max El.
End time (UTC)
End Az.
|